[[{"header":{"parameterUnit":"m.s-1","parameterCategory":1,"la1":30.2991,"la2":30.254,"lo1":-89.0895,"lo2":-89.0444,"dy":0.0017,"dx":0.0017,"nx":28,"ny":28,"refTime":"2023-11-12T03:00:00:Z","depth":0,"parameterNumber":2,"parameterNumberName":"U-component_of_WINDS"},"data":[0,0,0,0,0,0,0,0,0,0,0,0,0,0,0,0,0,0,0,0,0,0,0,0,0,0,0,0,0,0,0,0,0,0,0,0,0,0,0,0,0,0,0,0,0,0,0,0,0,0,0,0,0,0,0,0,0,0,-0.9863,-0.9863,0,-0.9855,-0.9855,-0.9855,-0.9831,-0.9831,-0.983,-0.983,-0.9821,-0.9822,-0.9822,0,0,0,0,0,0,0,0,0,0,0,0,0,-0.986,-0.986,-0.9863,-0.9863,-0.9863,-0.9855,-0.9855,-0.9855,-0.9831,-0.9831,-0.983,-0.9829,-0.9821,-0.9822,-0.9822,0,0,0,0,0,0,0,0,0,0,0,0,0,-0.9857,-0.986,-0.9863,-0.985,-0.9849,-0.9855,-0.9855,-0.9854,-0.9831,-0.9831,-0.983,-0.9829,-0.9821,-0.9822,-0.9822,-0.984,0,0,-0.9823,-0.9823,0,0,0,0,0,0,0,0,-0.9857,-0.9857,-0.9852,-0.9851,-0.985,-0.9843,-0.985,-0.985,-0.9832,-0.9838,-0.983,-0.9829,-0.9829,-0.9829,-0.9829,-0.9839,-0.9839,-0.9823,-0.9823,-0.9824,-0.9824,0,0,0,0,0,0,0,-0.9858,-0.9858,-0.986,-0.9852,-0.9851,-0.9845,-0.9844,-0.985,-0.9838,-0.9838,-0.9836,-0.9835,-0.9829,-0.9829,-0.9829,-0.9839,-0.9823,-0.9824,-0.9824,-0.9824,-0.9862,-0.9863,0,0,0,0,0,0,-0.986,-0.9858,-0.986,-0.986,-0.9852,-0.9846,-0.9845,-0.9846,-0.9838,-0.9836,-0.9836,-0.9834,-0.9829,-0.9828,-0.9828,-0.9848,-0.9824,-0.9824,-0.9824,-0.9862,-0.9863,-0.9863,0,0,0,0,0,0,-0.986,-0.986,-0.9861,-0.9858,-0.9858,-0.9847,-0.9849,-0.9846,-0.9847,-0.9837,-0.9834,-0.9838,-0.9828,-0.9828,-0.9837,-0.9848,-0.9824,-0.9824,-0.9861,-0.9862,-0.9863,-0.9888,0,0,0,0,0,0,-0.986,-0.986,-0.9867,-0.9859,-0.9858,-0.9869,-0.9849,-0.9847,-0.9847,-0.9845,-0.9838,-0.9837,-0.9827,-0.9836,-0.9837,-0.9848,-0.9825,-0.986,-0.9861,-0.9863,-0.9886,-0.989,-0.9893,0,0,0,0,0,-0.986,-0.9874,-0.9867,-0.9868,-0.9866,-0.987,-0.987,-0.9859,-0.9848,-0.9855,-0.9848,-0.9837,-0.9846,-0.9838,-0.9838,-0.9849,-0.9859,-0.9861,-0.9862,-0.9885,-0.9889,-0.9893,0,0,0,0,0,0,-0.9884,-0.9873,-0.9865,-0.9878,-0.9875,-0.9866,-0.9874,-0.9864,-0.9864,-0.9862,-0.9848,-0.9847,-0.9858,-0.9854,-0.9845,-0.9865,-0.9851,-0.9853,-0.9867,-0.9872,-0.9875,-0.9876,-0.9825,0,0,0,0,0,-0.9891,-0.9895,-0.9885,-0.9897,-0.9896,-0.9885,-0.9887,-0.9878,-0.9875,-0.9874,-0.9868,-0.9865,-0.9867,-0.9869,-0.9871,-0.9886,-0.9884,-0.9893,-0.9897,-0.99,-0.9902,-0.9909,-0.9913,-0.9869,-0.9869,-0.9869,0,0,-0.9906,-0.99,-0.9903,-0.9902,-0.9899,-0.9903,-0.9885,-0.989,-0.9893,-0.9875,-0.9883,-0.9878,-0.9874,-0.9886,-0.9891,-0.9884,-0.9913,-0.9902,-0.9904,-0.9905,-0.9911,-0.9915,-0.9919,-0.987,-0.987,-0.987,0,0,-0.9934,-0.993,-0.994,-0.9937,-0.9932,-0.9925,-0.9927,-0.992,-0.9916,-0.9924,-0.991,-0.9913,-0.9917,-0.9915,-0.9915,-0.9942,-0.9931,-0.9942,-0.9961,-0.9968,-0.9972,-0.9975,-0.9984,-0.9988,-0.9944,-0.9945,-0.9945,0,-0.9953,-0.9959,-0.9946,-0.9953,-0.9952,-0.9935,-0.9945,-0.9943,-0.9939,-0.9939,-0.993,-0.9935,-0.9931,-0.9942,-0.9949,-0.9949,-0.9951,-0.9943,-0.9972,-0.9975,-0.9978,-0.9987,-0.999,-0.9946,-0.9946,-0.9946,-0.9945,0,-0.9982,-0.9986,-0.9995,-0.9991,-0.9992,-1.0,-0.9988,-0.999,-0.9982,-0.9975,-0.9983,-0.9978,-0.9978,-0.998,-0.9972,-0.999,-0.9985,-0.9975,-0.996,-0.9983,-0.9992,-0.9995,-0.9948,-0.9947,-0.9947,-0.9947,0,0,-1.0027,-1.0016,-1.0019,-1.0017,-1.001,-1.0013,-1.002,-1.002,-1.0022,-1.002,-1.0026,-1.0029,-1.0019,-1.0019,-1.001,-1.0016,-1.0038,-1.0005,-1.0004,-1.0011,-1.0057,-1.0066,-1.007,-1.0031,-1.0031,-1.0032,-1.0058,0,-1.0054,-1.0065,-1.0054,-1.0067,-1.0071,-1.0055,-1.0061,-1.0057,-1.0051,-1.0053,-1.0046,-1.0049,-1.0036,-1.0035,-1.0041,-1.0034,-1.0047,-1.0032,-1.0036,-1.0036,-1.0038,-1.0074,-1.0083,-1.0108,-1.0061,-1.0061,-1.0062,0,-1.0087,-1.0086,-1.01,-1.0092,-1.0093,-1.0099,-1.0098,-1.01,-1.0096,-1.0091,-1.009,-1.0079,-1.0085,-1.007,-1.0079,-1.0069,-1.0069,-1.0066,-1.0067,-1.0067,-1.0051,-1.0076,-1.0116,-1.0119,-1.0067,-1.0066,-1.0066,0,-1.0119,-1.0121,-1.0129,-1.0128,-1.0119,-1.0123,-1.012,-1.0114,-1.0115,-1.0114,-1.0114,-1.0113,-1.0113,-1.0113,-1.0103,-1.0093,-1.0112,-1.0097,-1.0109,-1.0109,-1.0114,-1.0114,-1.0155,-1.0114,-1.0114,-1.0114,-1.0114,0,-1.0151,-1.016,-1.0143,-1.0149,-1.0158,-1.0145,-1.0155,-1.015,-1.0145,-1.0149,-1.0134,-1.0138,-1.0124,-1.0127,-1.0118,-1.0126,-1.0126,-1.0123,-1.012,-1.0124,-1.0125,-1.0125,-1.0123,-1.0115,-1.0115,-1.0114,-1.0114,0,-1.0188,-1.0177,-1.0185,-1.0175,-1.0173,-1.0181,-1.0173,-1.0177,-1.017,-1.0175,-1.0175,-1.0164,-1.0166,-1.0155,-1.0155,-1.015,-1.0162,-1.0157,-1.0164,-1.0162,-1.0175,-1.0174,-1.0218,-1.0223,-1.0179,-1.0179,-1.0179,0,-1.0209,-1.0215,-1.0206,-1.0208,-1.0205,-1.0207,-1.0208,-1.0194,-1.0195,-1.019,-1.0195,-1.0196,-1.0196,-1.02,-1.0192,-1.0192,-1.0187,-1.0202,-1.0187,-1.019,-1.0187,-1.0187,-1.0188,-1.0206,-1.0206,-1.0207,-1.0207,0,-1.0248,-1.0242,-1.0243,-1.0241,-1.0242,-1.024,-1.0238,-1.024,-1.0226,-1.0227,-1.0229,-1.0229,-1.0229,-1.023,-1.0228,-1.0225,-1.0214,-1.0212,-1.0215,-1.0219,-1.0222,-1.0221,-1.0173,-1.0211,-1.0211,-1.021,-1.021,-1.021,-1.0277,-1.0282,-1.0277,-1.0278,-1.0274,-1.0272,-1.0276,-1.0269,-1.027,-1.0269,-1.0261,-1.0264,-1.0259,-1.0256,-1.0253,-1.0255,-1.0248,-1.0252,-1.0253,-1.0254,-1.0257,-1.0222,-1.0255,-1.0255,-1.0255,-1.0254,-1.0254,0,-1.0316,-1.0311,-1.0312,-1.0309,-1.031,-1.0299,-1.0295,-1.0297,-1.03,-1.0296,-1.0296,-1.0298,-1.0299,-1.029,-1.029,-1.0293,-1.0288,-1.0294,-1.0294,-1.0293,-1.0263,-1.0261,-1.0298,-1.0298,-1.0298,-1.0298,-1.0298,-1.0298,-1.0336,-1.0343,-1.0337,-1.0343,-1.0338,-1.0341,-1.034,-1.0338,-1.0334,-1.0337,-1.0338,-1.0332,-1.0326,-1.0325,-1.0325,-1.0323,-1.0323,-1.0331,-1.0327,-1.0299,-1.0295,-1.0291,-1.0289,-1.0331,-1.0331,-1.0356,-1.0356,-1.0356]},{"header":{"parameterUnit":"m.s-1","parameterCategory":1,"la1":30.2991,"la2":30.254,"lo1":-89.0895,"lo2":-89.0444,"dy":0.0017,"dx":0.0017,"nx":28,"ny":28,"refTime":"2023-11-12T03:00:00:Z","depth":0,"parameterNumber":3,"parameterNumberName":"V-component_of_WINDS"},"data":[0,0,0,0,0,0,0,0,0,0,0,0,0,0,0,0,0,0,0,0,0,0,0,0,0,0,0,0,0,0,0,0,0,0,0,0,0,0,0,0,0,0,0,0,0,0,0,0,0,0,0,0,0,0,0,0,0,0,-4.2495,-4.2496,0,-4.2578,-4.2579,-4.258,-4.2571,-4.257,-4.2569,-4.2568,-4.2646,-4.265,-4.2653,0,0,0,0,0,0,0,0,0,0,0,0,0,-4.2323,-4.2326,-4.2495,-4.2496,-4.2497,-4.2578,-4.2579,-4.258,-4.2572,-4.257,-4.2569,-4.2567,-4.2645,-4.2649,-4.2653,0,0,0,0,0,0,0,0,0,0,0,0,0,-4.2401,-4.2327,-4.2495,-4.2503,-4.2504,-4.2578,-4.2579,-4.2581,-4.2572,-4.257,-4.2568,-4.2566,-4.2644,-4.2649,-4.2654,-4.2723,0,0,-4.2669,-4.2671,0,0,0,0,0,0,0,0,-4.2397,-4.2407,-4.25,-4.2502,-4.2504,-4.2563,-4.2548,-4.2628,-4.2572,-4.2546,-4.2568,-4.2565,-4.262,-4.2627,-4.2646,-4.2727,-4.273,-4.2669,-4.2672,-4.2675,-4.2676,0,0,0,0,0,0,0,-4.2391,-4.2404,-4.2528,-4.2502,-4.2504,-4.25,-4.2509,-4.2563,-4.2592,-4.2548,-4.2548,-4.2558,-4.262,-4.2641,-4.2648,-4.2731,-4.2669,-4.2674,-4.2677,-4.2679,-4.2875,-4.2877,0,0,0,0,0,0,-4.2385,-4.2399,-4.2525,-4.253,-4.2445,-4.2505,-4.2515,-4.2546,-4.2592,-4.2597,-4.256,-4.2557,-4.2634,-4.2642,-4.2651,-4.2736,-4.2674,-4.2679,-4.2682,-4.2873,-4.2875,-4.2878,0,0,0,0,0,0,-4.2381,-4.2396,-4.2522,-4.2465,-4.248,-4.251,-4.2545,-4.2548,-4.257,-4.2601,-4.2605,-4.2576,-4.2633,-4.2644,-4.2706,-4.2739,-4.2681,-4.2686,-4.287,-4.2873,-4.2876,-4.2907,0,0,0,0,0,0,-4.2376,-4.2395,-4.2422,-4.2466,-4.2484,-4.2577,-4.2547,-4.2551,-4.2579,-4.2577,-4.2618,-4.2622,-4.2632,-4.2699,-4.2711,-4.2745,-4.269,-4.2867,-4.2871,-4.2875,-4.2903,-4.2911,-4.2918,0,0,0,0,0,-4.237,-4.2426,-4.2424,-4.2439,-4.2519,-4.2579,-4.2589,-4.2601,-4.2582,-4.2609,-4.2629,-4.2621,-4.2733,-4.2705,-4.2719,-4.2755,-4.2865,-4.287,-4.2875,-4.29,-4.291,-4.2918,0,0,0,0,0,0,-4.2383,-4.2432,-4.243,-4.2502,-4.2537,-4.2578,-4.2612,-4.2611,-4.265,-4.2646,-4.2657,-4.2666,-4.273,-4.2748,-4.2716,-4.2825,-4.2796,-4.2804,-4.2811,-4.282,-4.2827,-4.2821,-4.2694,0,0,0,0,0,-4.2395,-4.2441,-4.248,-4.254,-4.2558,-4.2582,-4.2609,-4.2616,-4.2651,-4.2665,-4.269,-4.2723,-4.2766,-4.2794,-4.2835,-4.2906,-4.2915,-4.2937,-4.2945,-4.2951,-4.2957,-4.2997,-4.3008,-4.2894,-4.2894,-4.2894,0,0,-4.2418,-4.2451,-4.2479,-4.2543,-4.2571,-4.2618,-4.2595,-4.2644,-4.2679,-4.2672,-4.2733,-4.2753,-4.2791,-4.2858,-4.2889,-4.2875,-4.2991,-4.2957,-4.2961,-4.2965,-4.3004,-4.3015,-4.3024,-4.2898,-4.2897,-4.2896,0,0,-4.2485,-4.2515,-4.2569,-4.2598,-4.2642,-4.2658,-4.2671,-4.2713,-4.2726,-4.2789,-4.2785,-4.2825,-4.2899,-4.2927,-4.295,-4.3031,-4.3025,-4.3044,-4.3081,-4.3121,-4.313,-4.3138,-4.3167,-4.3178,-4.305,-4.305,-4.305,0,-4.2508,-4.2581,-4.2595,-4.2648,-4.2676,-4.2675,-4.2729,-4.2756,-4.281,-4.2829,-4.2813,-4.2908,-4.2933,-4.3007,-4.3028,-4.3046,-4.3061,-4.3039,-4.3128,-4.3136,-4.3143,-4.3172,-4.3183,-4.3052,-4.3052,-4.3052,-4.3052,0,-4.2608,-4.2658,-4.2696,-4.2752,-4.2785,-4.2837,-4.2858,-4.289,-4.2894,-4.2911,-4.2975,-4.3006,-4.3054,-4.3072,-4.3075,-4.3148,-4.3139,-4.3125,-4.3097,-4.3156,-4.3183,-4.3194,-4.3055,-4.3055,-4.3054,-4.3054,0,0,-4.2684,-4.275,-4.2763,-4.279,-4.2839,-4.2877,-4.2929,-4.2979,-4.3006,-4.3043,-4.3087,-4.3151,-4.314,-4.3167,-4.3173,-4.3208,-4.3271,-4.319,-4.3191,-4.3205,-4.3354,-4.3364,-4.3376,-4.3267,-4.3269,-4.3271,-4.3351,0,-4.2757,-4.2853,-4.2869,-4.2952,-4.2999,-4.2999,-4.3045,-4.3079,-4.3098,-4.3139,-4.3158,-4.3203,-4.3185,-4.3201,-4.3235,-4.3256,-4.3301,-4.325,-4.3308,-4.3309,-4.3299,-4.339,-4.3401,-4.3474,-4.3361,-4.3363,-4.3364,0,-4.2854,-4.2898,-4.2987,-4.3033,-4.3053,-4.3094,-4.3142,-4.3182,-4.3221,-4.3231,-4.3263,-4.3266,-4.3319,-4.3289,-4.3363,-4.3328,-4.3352,-4.3366,-4.3369,-4.3375,-4.3341,-4.3399,-4.3498,-4.3509,-4.3381,-4.3379,-4.3378,0,-4.2902,-4.2983,-4.3048,-4.307,-4.3124,-4.3153,-4.3176,-4.3214,-4.3243,-4.3285,-4.3304,-4.335,-4.3375,-4.3409,-4.3424,-4.3401,-4.3497,-4.3468,-4.3507,-4.3507,-4.3527,-4.3526,-4.3632,-4.3542,-4.3542,-4.3542,-4.3542,0,-4.2982,-4.3037,-4.3071,-4.311,-4.3171,-4.3188,-4.3248,-4.327,-4.3304,-4.3347,-4.3349,-4.3388,-4.3406,-4.3448,-4.3459,-4.3519,-4.353,-4.354,-4.3542,-4.354,-4.3539,-4.3556,-4.3552,-4.3545,-4.3544,-4.3544,-4.3543,0,-4.3046,-4.3071,-4.3141,-4.3188,-4.3201,-4.3244,-4.3283,-4.3321,-4.334,-4.3394,-4.3408,-4.3437,-4.3487,-4.3505,-4.3565,-4.3573,-4.3642,-4.364,-4.363,-4.3631,-4.367,-4.3666,-4.3791,-4.3809,-4.3707,-4.3707,-4.3708,0,-4.3096,-4.3139,-4.3191,-4.3222,-4.3247,-4.3295,-4.3327,-4.3345,-4.3377,-4.3427,-4.3459,-4.3509,-4.3551,-4.363,-4.3655,-4.3701,-4.3701,-4.3741,-4.3707,-4.3704,-4.3702,-4.37,-4.3704,-4.3747,-4.3749,-4.3749,-4.375,0,-4.3182,-4.3193,-4.3239,-4.3291,-4.333,-4.337,-4.3409,-4.3433,-4.3458,-4.3494,-4.3547,-4.3579,-4.3642,-4.3692,-4.374,-4.3762,-4.376,-4.3761,-4.3773,-4.3771,-4.3764,-4.3769,-4.3648,-4.3758,-4.3757,-4.3756,-4.3756,-4.3756,-4.3241,-4.328,-4.3324,-4.3376,-4.3408,-4.3446,-4.3485,-4.351,-4.3555,-4.361,-4.3617,-4.3674,-4.3713,-4.3778,-4.3802,-4.3846,-4.3834,-4.3851,-4.3855,-4.3859,-4.3863,-4.3757,-4.3854,-4.3854,-4.3854,-4.3853,-4.3853,0,-4.3328,-4.3357,-4.3405,-4.3462,-4.3503,-4.3501,-4.3545,-4.3579,-4.363,-4.3667,-4.371,-4.3771,-4.382,-4.385,-4.3899,-4.3928,-4.3929,-4.394,-4.3938,-4.3944,-4.3869,-4.3855,-4.3939,-4.3939,-4.3939,-4.3939,-4.3939,-4.3939,-4.3378,-4.3444,-4.3461,-4.3543,-4.3571,-4.3629,-4.3655,-4.3689,-4.372,-4.3789,-4.3831,-4.3851,-4.3886,-4.3938,-4.3983,-4.399,-4.4008,-4.4021,-4.4028,-4.3958,-4.3949,-4.394,-4.3927,-4.4025,-4.4025,-4.4099,-4.4099,-4.41]}]]